ARIANE 42P DEB, 44507

Orbit data source: Space-Track

ARIANE 42P DEB, 44507 is space debris in LEO originally from a launch on Mon, 10 Aug 1992 UTC launched from the French Guiana (FRGUI). Debris objects in space refer to the collection of defunct objects orbiting the Earth. Examples of debris include non-operational satellites, rocket bodies, and fragments generated from explosions, collisions, or faulty payload assembly.

Loading next visibility...
Identifier
44507, 1992-052E
Orbit
LEO
Country
Flag of FRFR
Related business
Manufacturer
ArianeGroup
Mission
Spacecraft
Bus & Motor
Unknown
Mass
Unknown
Launch date (UTC)
1992-08-10 (33 years ago)
Launch vehicle
Unknown
Launch site
French Guiana (FRGUI)
Object type
Payload
Rocket body
Debris
Shape & HBR
Unknown shape, 0.1 m
Radar Cross Section
Small (<0.1 m²)

Expand to show TLE details & history
Last TLE update: 2 days ago

TLE from 2 days ago
0 ARIANE 42P DEB
1 44507U 92052E   25305.41111998  .00000395  00000-0  17292-2 0  9997
2 44507  66.0068 351.5573 0135648  36.3942 324.6206 12.87886192291547
Epoch: 2025-11-01T09:52Z
TLE epoch observation values (Epoch: 2025-11-01T09:52:00.766Z)
Latitude
-0.00004°
Longitude
162.6125°
Altitude
1,227.284 km
Speed
7.281 km/s
True Right ascension
23h 26m 13s
True Declination
0° 00' 00"
Sunlit
Object was in full shadow at epoch
Visualization orbit readout
Latitude
Unknown
Longitude
Unknown
Altitude
Unknown
Speed
Unknown
Apparent Right ascension
Unknown
Apparent Declination
Unknown
Sunlit
N/A
Visualization observer readout
Local Sidereal Time
22:33:59
Azimuth
Unknown
Elevation
Unknown
Doppler factor
Unknown
Orbital elements
Apogee altitude
1,412.753 km
Perigee altitude
1,204.218 km
Semi-major axis
7,686.623 km
Eccentricity
0.01356
Inclination
66.0068°
RAAN
351.5573°
Arg. of periapsis
36.3942°
True anomaly
323.70804°
Mean anomaly
324.6206°
Eccentric anomaly
324.16559°
Mean motion
3.22062 °/min
Orbital period
111.78 mins
BSTAR
0.0017292
Loading maneuver chart data...
Computing Atmospheric mass density...
Loading historical data...
Loading historical data...
Loading historical data...
Loading historical data...
Loading historical data...
Loading historical data...
Loading historical data...

Documentation

Showing up to 5 results
|